Date String (YYYY-MM-DD hh:mm:ss) UTC,Instrument flags,Ambient pressure (hPa),Sample flow (lpm),Bypass flow (lpm),Sample temperature (°C),Ambient temperature (°C),ASC tube jacket temperature (°C),LED temperature (°C),Box temperature (°C),Sample RH (%),Span deviation,Mass concentration (μg/m³),Mass concentration (μg/m³),Mass concentration (μg/m³)
DateTimeUTC,F1_M11,P_M11,Q1_M11,Q2_M11,T1_M11,T2_M11,T3_M11,T4_M11,T5_M11,U1_M11,ZSPAN_M11,X0_M11,X2_M11,X1_M11
2022-05-29 04:00:00,,0813.5,5.01,0.00,29.4,28.1,00.0,38.3,31.2,09.3,0000.0,0012.40,0003.21,0001.19
2022-05-29 04:01:00,,0813.5,5.01,0.00,29.4,28.2,00.0,38.3,31.2,09.4,0000.0,0012.71,0003.21,0001.18
2022-05-29 04:02:00,,0813.5,5.00,0.00,29.4,28.2,00.0,38.3,31.3,09.5,0000.0,0012.87,0003.19,0001.20
2022-05-29 04:03:00,,0813.5,4.99,0.00,29.4,28.3,00.0,38.3,31.3,09.7,0000.0,0013.25,0003.25,0001.25
2022-05-29 04:04:00,,0813.6,4.99,0.00,29.4,28.4,00.0,38.3,31.3,10.5,0000.0,0013.55,0003.28,0001.27
2022-05-29 04:05:00,,0813.9,5.00,0.00,29.5,28.4,00.0,38.3,31.3,10.8,0000.0,0013.94,0003.29,0001.30
2022-05-29 04:06:00,,0813.5,5.00,0.00,29.5,28.5,00.0,38.3,31.4,10.9,0000.0,0013.85,0003.29,0001.29
2022-05-29 04:07:00,,0813.8,5.01,0.00,29.5,28.5,00.0,38.3,31.4,10.4,0000.0,0012.77,0003.36,0001.30
2022-05-29 04:08:00,,0814.0,4.99,0.00,29.5,28.5,00.0,38.4,31.4,10.2,0000.0,0012.73,0003.39,0001.29
2022-05-29 04:09:00,,0813.8,4.99,0.00,29.5,28.6,00.0,38.4,31.4,09.7,0000.0,0012.09,0003.36,0001.31
2022-05-29 04:10:00,,0813.8,5.00,0.00,29.6,28.6,00.0,38.4,31.5,09.4,0000.0,0012.06,0003.37,0001.33
2022-05-29 04:11:00,,0813.6,5.00,0.00,29.6,28.6,00.0,38.4,31.5,09.4,0000.0,0011.99,0003.41,0001.33
2022-05-29 04:12:00,,0813.5,5.00,0.00,29.6,28.7,00.0,38.4,31.5,09.4,0000.0,0011.84,0003.43,0001.34
2022-05-29 04:13:00,,0813.6,5.01,0.00,29.6,28.7,00.0,38.4,31.5,09.4,0000.0,0011.52,0003.42,0001.32
2022-05-29 04:14:00,,0813.6,4.99,0.00,29.7,28.7,00.0,38.5,31.5,09.5,0000.0,0011.55,0003.41,0001.28
2022-05-29 04:15:00,,0813.6,5.00,0.00,29.7,28.8,00.0,38.5,31.6,09.3,0000.0,0011.45,0003.47,0001.26
2022-05-29 04:16:00,,0813.6,5.01,0.00,29.7,28.8,00.0,38.5,31.6,09.3,0000.0,0011.73,0003.50,0001.25
2022-05-29 04:17:00,,0813.7,5.00,0.00,29.7,28.8,00.0,38.5,31.6,09.3,0000.0,0011.31,0003.51,0001.26
2022-05-29 04:18:00,,0813.6,5.00,0.00,29.7,28.8,00.0,38.5,31.6,09.4,0000.0,0011.03,0003.51,0001.28
2022-05-29 04:19:00,,0813.6,4.99,0.00,29.7,28.8,00.0,38.5,31.6,09.4,0000.0,0011.02,0003.55,0001.29
2022-05-29 04:20:00,,0813.7,5.01,0.00,29.7,28.5,00.0,38.5,31.6,09.2,0000.0,0010.95,0003.53,0001.28
2022-05-29 04:21:00,,0814.0,4.99,0.00,29.7,27.6,00.0,38.5,31.3,09.0,0000.0,0011.46,0003.55,0001.29
2022-05-29 04:22:00,,0814.1,5.00,0.00,29.6,27.2,00.0,38.4,31.2,09.0,0000.0,0011.59,0003.51,0001.28
2022-05-29 04:23:00,,0814.0,4.99,0.00,29.5,27.1,00.0,38.4,31.1,10.4,0000.0,0011.43,0003.47,0001.27
2022-05-29 04:24:00,,0814.2,5.01,0.00,29.4,27.2,00.0,38.4,31.1,10.8,0000.0,0011.39,0003.43,0001.26
2022-05-29 04:25:00,,0814.1,4.99,0.00,29.4,27.3,00.0,38.3,31.1,11.2,0000.0,0011.37,0003.40,0001.25
2022-05-29 04:26:00,,0814.0,5.01,0.00,29.4,27.5,00.0,38.3,31.1,10.5,0000.0,0011.30,0003.33,0001.23
2022-05-29 04:27:00,,0813.9,5.01,0.00,29.4,27.6,00.0,38.3,31.1,10.1,0000.0,0011.73,0003.33,0001.22
2022-05-29 04:28:00,,0813.6,4.99,0.00,29.4,27.7,00.0,38.3,31.2,10.1,0000.0,0011.84,0003.34,0001.20
2022-05-29 04:29:00,,0813.7,5.02,0.00,29.4,27.9,00.0,38.3,31.2,10.1,0000.0,0011.62,0003.28,0001.19
2022-05-29 04:30:00,,0813.9,5.00,0.00,29.4,27.9,00.0,38.3,31.2,10.3,0000.0,0011.80,0003.19,0001.17
2022-05-29 04:31:00,,0814.2,5.00,0.00,29.4,28.0,00.0,38.3,31.2,10.2,0000.0,0011.85,0003.17,0001.18
2022-05-29 04:32:00,,0814.1,5.00,0.00,29.4,28.1,00.0,38.3,31.2,10.4,0000.0,0011.64,0003.11,0001.17
2022-05-29 04:33:00,,0814.1,5.01,0.00,29.4,28.1,00.0,38.3,31.2,09.9,0000.0,0011.48,0003.11,0001.17
2022-05-29 04:34:00,,0813.9,4.99,0.00,29.4,28.2,00.0,38.3,31.3,09.5,0000.0,0011.74,0003.20,0001.19
2022-05-29 04:35:00,,0813.8,4.99,0.00,29.4,28.3,00.0,38.3,31.3,09.5,0000.0,0011.80,0003.32,0001.23
2022-05-29 04:36:00,,0813.6,5.01,0.00,29.4,28.3,00.0,38.3,31.3,09.4,0000.0,0011.68,0003.34,0001.24
2022-05-29 04:37:00,,0813.5,5.01,0.00,29.4,28.3,00.0,38.3,31.3,09.3,0000.0,0012.15,0003.33,0001.26
2022-05-29 04:38:00,,0813.6,4.99,0.00,29.5,28.4,00.0,38.3,31.3,09.2,0000.0,0011.68,0003.32,0001.26
2022-05-29 04:39:00,,0813.6,4.99,0.00,29.5,28.4,00.0,38.3,31.3,10.2,0000.0,0012.23,0003.31,0001.26
2022-05-29 04:40:00,,0813.6,5.01,0.00,29.5,28.4,00.0,38.3,31.4,10.3,0000.0,0012.57,0003.38,0001.27
2022-05-29 04:41:00,,0813.7,4.99,0.00,29.5,28.4,00.0,38.3,31.4,10.0,0000.0,0012.35,0003.45,0001.27
2022-05-29 04:42:00,,0813.9,5.00,0.00,29.5,28.5,00.0,38.4,31.4,09.9,0000.0,0012.71,0003.54,0001.27
2022-05-29 04:43:00,,0813.6,4.99,0.00,29.5,28.5,00.0,38.4,31.4,10.4,0000.0,0012.53,0003.55,0001.27
2022-05-29 04:44:00,,0813.7,5.00,0.00,29.5,28.5,00.0,38.4,31.4,10.1,0000.0,0013.15,0003.53,0001.28
2022-05-29 04:45:00,,0813.5,5.01,0.00,29.6,28.5,00.0,38.4,31.4,10.4,0000.0,0012.76,0003.47,0001.26
2022-05-29 04:46:00,,0813.6,5.00,0.00,29.6,28.5,00.0,38.4,31.4,09.9,0000.0,0012.79,0003.42,0001.26
2022-05-29 04:47:00,,0813.6,5.01,0.00,29.6,28.5,00.0,38.4,31.4,09.7,0000.0,0012.53,0003.39,0001.24
2022-05-29 04:48:00,,0813.5,4.99,0.00,29.6,28.5,00.0,38.4,31.4,09.5,0000.0,0011.79,0003.36,0001.24
2022-05-29 04:49:00,,0813.5,5.00,0.00,29.6,28.6,00.0,38.5,31.5,09.9,0000.0,0011.42,0003.34,0001.25
2022-05-29 04:50:00,,0813.5,5.00,0.00,29.6,28.6,00.0,38.5,31.5,09.9,0000.0,0011.48,0003.38,0001.27
2022-05-29 04:51:00,,0813.5,5.01,0.00,29.6,28.6,00.0,38.5,31.5,09.4,0000.0,0011.58,0003.36,0001.26
2022-05-29 04:52:00,,0813.5,5.00,0.00,29.6,28.6,00.0,38.5,31.5,08.9,0000.0,0011.83,0003.34,0001.26
2022-05-29 04:53:00,,0813.5,5.01,0.00,29.6,28.6,00.0,38.5,31.5,09.2,0000.0,0011.95,0003.29,0001.25
2022-05-29 04:54:00,,0813.5,4.99,0.00,29.7,28.6,00.0,38.5,31.5,09.6,0000.0,0011.87,0003.31,0001.25
2022-05-29 04:55:00,,0813.4,5.00,0.00,29.7,28.6,00.0,38.5,31.5,09.5,0000.0,0011.40,0003.35,0001.26
2022-05-29 04:56:00,,0813.4,5.00,0.00,29.7,28.6,00.0,38.5,31.5,08.9,0000.0,0011.04,0003.43,0001.25
2022-05-29 04:57:00,,0813.5,4.99,0.00,29.7,28.7,00.0,38.5,31.5,08.9,0000.0,0010.61,0003.40,0001.23
2022-05-29 04:58:00,,0813.5,4.99,0.00,29.7,28.7,00.0,38.5,31.6,08.9,0000.0,0010.47,0003.38,0001.21
2022-05-29 04:59:00,,0813.5,5.01,0.00,29.7,28.7,00.0,38.6,31.6,10.5,0000.0,0010.66,0003.41,0001.21
